GW0692 Weather Reports


Display with metric or nautical units.
time (UTC)temp
F
wind
direction
speed
MPH
gust
MPH
rain 1hr
in
rain 24hr
in
rain mn
in
humidity
%
barometer
mb
20260504110409 51 225 5.0 5.0 0.00 0.00 0.00 65 1016.3
20260504100326 50 253 2.0 2.0 0.00 0.00 0.00 68 1016.2
20260504081720 51 253 0.0 0.0 0.00 0.00 0.00 67 1017.2
20260504081216 52 249 2.0 2.0 0.00 0.00 0.00 66 1017.0
20260504080712 52 240 1.0 3.0 0.00 0.00 0.00 65 1017.3
20260504080209 52 236 4.0 5.0 0.00 0.00 0.00 65 1017.4
20260504070137 54 252 3.0 3.0 0.00 0.00 0.00 58 1017.7
20260504050525 54 241 8.0 10.0 0.00 0.00 0.00 55 1018.7
20260504050022 54 244 11.0 14.0 0.00 0.00 0.00 55 1018.4
20260504045519 54 270 12.0 15.0 0.00 0.00 0.00 55 1018.5
20260504045014 54 238 8.0 10.0 0.00 0.00 0.00 56 1018.4
20260504044512 53 254 5.0 7.0 0.00 0.00 0.00 57 1018.7
20260504044009 53 260 3.0 3.0 0.00 0.00 0.00 60 1018.8
20260504043506 53 263 2.0 2.0 0.00 0.00 0.00 61 1018.7
20260504043003 53 261 3.0 3.0 0.00 0.00 0.00 62 1018.7
20260504042500 53 244 5.0 7.0 0.00 0.00 0.00 57 1018.7
20260504041957 53 240 2.0 3.0 0.00 0.00 0.00 57 1018.7
20260504041453 54 275 4.0 5.0 0.00 0.00 0.00 57 1018.7
20260504040948 54 243 8.0 10.0 0.00 0.00 0.00 56 1018.7
20260504040447 54 276 5.0 5.0 0.00 0.00 0.00 56 1018.5
20260504035942 53 245 5.0 7.0 0.00 0.00 0.00 56 1018.5
20260504035440 53 264 3.0 3.0 0.00 0.00 0.00 56 1018.7
20260504034936 53 270 6.0 9.0 0.00 0.00 0.00 56 1018.7
20260504034434 54 251 3.0 3.0 0.00 0.00 0.00 55 1018.4
20260504033931 54 256 6.0 9.0 0.00 0.00 0.00 55 1018.5
20260504033429 54 235 6.0 9.0 0.00 0.00 0.00 54 1018.5
20260504032926 54 231 6.0 9.0 0.00 0.00 0.00 53 1018.4
20260504032422 54 268 9.0 12.0 0.00 0.00 0.00 53 1018.4
20260504031919 54 236 9.0 10.0 0.00 0.00 0.00 53 1018.4
20260504031417 54 249 9.0 14.0 0.00 0.00 0.00 53 1018.2
20260504030913 55 245 10.0 14.0 0.00 0.00 0.00 53 1018.2
20260504030410 54 252 12.0 14.0 0.00 0.00 0.00 53 1018.4
20260504025906 55 224 8.0 9.0 0.00 0.00 0.00 53 1018.4
20260504025403 55 253 9.0 12.0 0.00 0.00 0.00 53 1018.3
20260504024900 55 223 9.0 10.0 0.00 0.00 0.00 54 1018.0
20260504024356 55 253 7.0 9.0 0.00 0.00 0.00 54 1018.2
20260504023854 55 279 9.0 10.0 0.00 0.00 0.00 53 1017.9
20260504023350 55 240 11.0 15.0 0.00 0.00 0.00 52 1018.0
20260504022846 55 286 13.0 15.0 0.00 0.00 0.00 53 1017.7
20260504022343 55 222 10.0 14.0 0.00 0.00 0.00 54 1017.8
20260504021839 55 241 9.0 10.0 0.00 0.00 0.00 55 1017.7
20260504021337 55 249 8.0 10.0 0.00 0.00 0.00 56 1017.9
20260504020833 56 278 8.0 10.0 0.00 0.00 0.00 56 1018.0
20260504020330 56 233 11.0 15.0 0.00 0.00 0.00 56 1018.2
20260504015826 56 220 11.0 12.0 0.00 0.00 0.00 55 1017.9
20260504015323 57 245 14.0 17.0 0.00 0.00 0.00 55 1018.3
20260504014819 57 230 8.0 12.0 0.00 0.00 0.00 52 1017.9
20260504014315 59 236 7.0 10.0 0.00 0.00 0.00 39 1018.0
20260504013813 59 248 3.0 3.0 0.00 0.00 0.00 38 1017.8
20260504013311 59 290 5.0 9.0 0.00 0.00 0.00 38 1017.5
20260504012807 59 270 3.0 5.0 0.00 0.00 0.00 37 1017.5
20260504012305 60 248 3.0 3.0 0.00 0.00 0.00 37 1017.5
20260504011802 60 259 1.0 2.0 0.00 0.00 0.00 37 1017.5
20260504011258 60 256 3.0 5.0 0.00 0.00 0.00 36 1017.4
20260504010754 60 238 4.0 5.0 0.00 0.00 0.00 36 1017.7
20260504010250 61 287 6.0 7.0 0.00 0.00 0.00 35 1017.5
20260504005747 61 271 3.0 5.0 0.00 0.00 0.00 34 1017.4
20260504005244 61 244 5.0 9.0 0.00 0.00 0.00 34 1017.9
20260504004742 61 244 4.0 7.0 0.00 0.00 0.00 34 1017.7
20260504004238 61 282 7.0 9.0 0.00 0.00 0.00 33 1017.7
20260504003735 62 255 6.0 7.0 0.00 0.00 0.00 33 1017.8
20260504003232 61 258 3.0 3.0 0.00 0.00 0.00 32 1017.8
20260504002729 62 263 3.0 3.0 0.00 0.00 0.00 31 1017.5
20260504002225 64 275 6.0 7.0 0.00 0.00 0.00 28 1018.0
20260504001723 64 296 3.0 5.0 0.00 0.00 0.00 28 1017.8
20260504001220 64 289 4.0 7.0 0.00 0.00 0.00 28 1017.9
20260504000717 63 240 2.0 2.0 0.00 0.00 0.00 28 1017.8
20260504000214 64 275 5.0 9.0 0.00 0.00 0.00 28 1017.7
20260503235712 64 250 5.0 5.0 0.00 0.00 0.00 27 1017.9
20260503235209 63 283 3.0 3.0 0.00 0.00 0.00 28 1018.0
20260503234707 63 273 4.0 5.0 0.00 0.00 0.00 27 1017.9
20260503234205 63 241 6.0 7.0 0.00 0.00 0.00 27 1018.0
20260503233701 63 220 6.0 7.0 0.00 0.00 0.00 27 1018.2
20260503233157 63 236 9.0 14.0 0.00 0.00 0.00 27 1018.3
20260503232654 64 279 9.0 12.0 0.00 0.00 0.00 27 1018.2
20260503232151 65 270 5.0 7.0 0.00 0.00 0.00 26 1018.2
20260503231650 65 251 5.0 9.0 0.00 0.00 0.00 26 1018.2
20260503231145 64 240 9.0 12.0 0.00 0.00 0.00 26 1018.3
20260503230642 63 283 3.0 3.0 0.00 0.00 0.00 28 1018.3
20260503230139 64 294 9.0 12.0 0.00 0.00 0.00 27 1018.5
20260503225637 63 263 14.0 19.0 0.00 0.00 0.00 27 1018.7
20260503225136 63 214 9.0 14.0 0.00 0.00 0.00 27 1018.5
20260503224634 64 285 6.0 7.0 0.00 0.00 0.00 26 1018.4
20260503224132 63 287 11.0 17.0 0.00 0.00 0.00 27 1018.5
20260503223630 63 269 7.0 9.0 0.00 0.00 0.00 27 1018.7
20260503223125 64 267 10.0 10.0 0.00 0.00 0.00 26 1018.7
20260503222623 64 337 5.0 7.0 0.00 0.00 0.00 26 1018.9
20260503222121 64 232 9.0 10.0 0.00 0.00 0.00 26 1018.9
20260503221619 64 334 9.0 12.0 0.00 0.00 0.00 25 1018.7
20260503221116 63 266 8.0 12.0 0.00 0.00 0.00 26 1018.9
20260503220613 63 241 7.0 10.0 0.00 0.00 0.00 25 1018.9
20260503220109 64 234 13.0 19.0 0.00 0.00 0.00 25 1018.8
20260503215606 63 238 7.0 10.0 0.00 0.00 0.00 26 1018.9
20260503215103 64 274 7.0 9.0 0.00 0.00 0.00 25 1018.9
20260503214602 63 300 11.0 15.0 0.00 0.00 0.00 25 1019.4
20260503214057 63 281 7.0 9.0 0.00 0.00 0.00 23 1019.2
20260503213556 64 236 9.0 10.0 0.00 0.00 0.00 23 1019.3
20260503213052 62 247 3.0 3.0 0.00 0.00 0.00 26 1019.5
20260503212550 64 243 9.0 10.0 0.00 0.00 0.00 25 1019.5
20260503212047 64 221 7.0 9.0 0.00 0.00 0.00 28 1019.4
20260503211544 64 259 6.0 7.0 0.00 0.00 0.00 26 1019.7
20260503211039 62 254 6.0 9.0 0.00 0.00 0.00 27 1019.9
20260503210537 62 233 9.0 14.0 0.00 0.00 0.00 30 1019.9
20260503210032 63 315 9.0 15.0 0.00 0.00 0.00 30 1019.9
20260503205529 63 294 5.0 5.0 0.00 0.00 0.00 28 1020.0
20260503205026 62 257 11.0 12.0 0.00 0.00 0.00 30 1020.2
20260503204523 61 233 15.0 15.0 0.00 0.00 0.00 33 1020.5
20260503204020 61 266 4.0 7.0 0.00 0.00 0.00 31 1020.5
20260503203517 61 200 9.0 12.0 0.00 0.00 0.00 31 1020.5
20260503203014 61 225 3.0 3.0 0.00 0.00 0.00 33 1020.8
20260503202512 61 230 7.0 9.0 0.00 0.00 0.00 33 1020.7
20260503202010 60 261 7.0 9.0 0.00 0.00 0.00 32 1020.8
20260503201508 61 286 5.0 7.0 0.00 0.00 0.00 32 1020.9
20260503201004 61 257 3.0 3.0 0.00 0.00 0.00 35 1021.2
20260503200501 61 276 5.0 7.0 0.00 0.00 0.00 36 1021.0
20260503195957 59 253 5.0 5.0 0.00 0.00 0.00 34 1021.3
20260503195455 62 296 9.0 14.0 0.00 0.00 0.00 30 1021.3
20260503194951 60 246 5.0 7.0 0.00 0.00 0.00 36 1021.4
20260503194449 60 267 7.0 9.0 0.00 0.00 0.00 36 1021.7
20260503193943 57 249 7.0 12.0 0.00 0.00 0.00 41 1021.5
20260503193439 59 247 5.0 7.0 0.00 0.00 0.00 42 1021.7
20260503192935 59 277 6.0 9.0 0.00 0.00 0.00 40 1021.8
20260503192432 57 275 4.0 5.0 0.00 0.00 0.00 41 1021.5
20260503191927 57 289 11.0 12.0 0.00 0.00 0.00 42 1021.5
20260503191425 57 292 8.0 10.0 0.00 0.00 0.00 41 1021.7
20260503190921 58 288 6.0 9.0 0.00 0.00 0.00 43 1021.8
20260503190419 58 241 7.0 9.0 0.00 0.00 0.00 41 1021.9
20260503185915 57 242 6.0 9.0 0.00 0.00 0.00 44 1022.2
20260503185412 57 209 9.0 12.0 0.00 0.00 0.00 43 1022.2
20260503184911 58 253 7.0 10.0 0.00 0.00 0.00 42 1022.2
20260503184408 59 294 7.0 9.0 0.00 0.00 0.00 42 1022.0
20260503183904 58 227 5.0 9.0 0.00 0.00 0.00 43 1022.3
20260503183401 58 290 5.0 5.0 0.00 0.00 0.00 43 1022.4
20260503182858 57 308 7.0 7.0 0.00 0.00 0.00 45 1022.5
20260503182357 57 298 8.0 12.0 0.00 0.00 0.00 44 1022.8
20260503181854 57 267 5.0 7.0 0.00 0.00 0.00 44 1022.9
20260503181351 57 232 3.0 5.0 0.00 0.00 0.00 43 1023.0
20260503180847 56 264 6.0 7.0 0.00 0.00 0.00 45 1022.9
20260503180345 57 267 3.0 5.0 0.00 0.00 0.00 45 1023.0
20260503175841 57 242 9.0 15.0 0.00 0.00 0.00 44 1023.0
20260503175339 57 253 6.0 9.0 0.00 0.00 0.00 44 1023.0
20260503174835 57 232 10.0 14.0 0.00 0.00 0.00 42 1022.9
20260503174333 58 270 6.0 9.0 0.00 0.00 0.00 45 1023.3
20260503173828 58 303 6.0 9.0 0.00 0.00 0.00 45 1023.0
20260503173325 58 267 4.0 5.0 0.00 0.00 0.00 44 1023.0
20260503172822 58 299 6.0 7.0 0.00 0.00 0.00 43 1023.3
20260503172320 58 226 7.0 10.0 0.00 0.00 0.00 43 1023.2
20260503171815 57 244 11.0 14.0 0.00 0.00 0.00 44 1023.0
20260503171312 57 241 7.0 10.0 0.00 0.00 0.00 43 1023.5
20260503170809 57 248 4.0 5.0 0.00 0.00 0.00 44 1023.5
20260503170306 57 250 9.0 10.0 0.00 0.00 0.00 44 1023.8
20260503150658 53 245 0.0 0.0 0.00 0.00 0.00 54 1023.6
20260503150154 53 294 2.0 3.0 0.00 0.00 0.00 52 1023.8
20260503140119 50 274 2.0 2.0 0.00 0.00 0.00 66 1023.4
20260503131048 45 260 3.0 3.0 0.00 0.00 0.00 73 1023.0
20260503130545 45 262 2.0 3.0 0.00 0.00 0.00 75 1023.0